Index of /20260427/WXO-DD/model_rdps/10km/06/021
Name Last modified Size Description
Parent Directory -
20260427T06Z_MSC_RDPS_AbsoluteVorticity_IsbL-0250_RLatLon0.09_PT021H.grib2 2026-04-27 08:46 615K
20260427T06Z_MSC_RDPS_AbsoluteVorticity_IsbL-0500_RLatLon0.09_PT021H.grib2 2026-04-27 08:46 560K
20260427T06Z_MSC_RDPS_AbsoluteVorticity_IsbL-0700_RLatLon0.09_PT021H.grib2 2026-04-27 08:46 621K
20260427T06Z_MSC_RDPS_AbsoluteVorticity_IsbL-0850_RLatLon0.09_PT021H.grib2 2026-04-27 08:46 772K
20260427T06Z_MSC_RDPS_AirTemp_AGL-120m_RLatLon0.09_PT021H.grib2 2026-04-27 08:46 387K
20260427T06Z_MSC_RDPS_AirTemp_AGL-2m_RLatLon0.09_PT021H.grib2 2026-04-27 08:46 626K
20260427T06Z_MSC_RDPS_AirTemp_AGL-40m_RLatLon0.09_PT021H.grib2 2026-04-27 08:46 400K
20260427T06Z_MSC_RDPS_AirTemp_AGL-80m_RLatLon0.09_PT021H.grib2 2026-04-27 08:46 391K
20260427T06Z_MSC_RDPS_AirTemp_IsbL-0001_RLatLon0.09_PT021H.grib2 2026-04-27 08:46 254K
20260427T06Z_MSC_RDPS_AirTemp_IsbL-0005_RLatLon0.09_PT021H.grib2 2026-04-27 08:46 292K
20260427T06Z_MSC_RDPS_AirTemp_IsbL-0010_RLatLon0.09_PT021H.grib2 2026-04-27 08:46 305K
20260427T06Z_MSC_RDPS_AirTemp_IsbL-0020_RLatLon0.09_PT021H.grib2 2026-04-27 08:46 321K
20260427T06Z_MSC_RDPS_AirTemp_IsbL-0030_RLatLon0.09_PT021H.grib2 2026-04-27 08:46 335K
20260427T06Z_MSC_RDPS_AirTemp_IsbL-0050_RLatLon0.09_PT021H.grib2 2026-04-27 08:46 316K
20260427T06Z_MSC_RDPS_AirTemp_IsbL-0100_RLatLon0.09_PT021H.grib2 2026-04-27 08:46 430K
20260427T06Z_MSC_RDPS_AirTemp_IsbL-0150_RLatLon0.09_PT021H.grib2 2026-04-27 08:46 429K
20260427T06Z_MSC_RDPS_AirTemp_IsbL-0175_RLatLon0.09_PT021H.grib2 2026-04-27 08:46 420K
20260427T06Z_MSC_RDPS_AirTemp_IsbL-0200_RLatLon0.09_PT021H.grib2 2026-04-27 08:46 422K
20260427T06Z_MSC_RDPS_AirTemp_IsbL-0225_RLatLon0.09_PT021H.grib2 2026-04-27 08:46 422K
20260427T06Z_MSC_RDPS_AirTemp_IsbL-0250_RLatLon0.09_PT021H.grib2 2026-04-27 08:46 428K
20260427T06Z_MSC_RDPS_AirTemp_IsbL-0275_RLatLon0.09_PT021H.grib2 2026-04-27 08:46 407K
20260427T06Z_MSC_RDPS_AirTemp_IsbL-0300_RLatLon0.09_PT021H.grib2 2026-04-27 08:46 414K
20260427T06Z_MSC_RDPS_AirTemp_IsbL-0350_RLatLon0.09_PT021H.grib2 2026-04-27 08:46 426K
20260427T06Z_MSC_RDPS_AirTemp_IsbL-0400_RLatLon0.09_PT021H.grib2 2026-04-27 08:46 428K
20260427T06Z_MSC_RDPS_AirTemp_IsbL-0450_RLatLon0.09_PT021H.grib2 2026-04-27 08:46 435K
20260427T06Z_MSC_RDPS_AirTemp_IsbL-0500_RLatLon0.09_PT021H.grib2 2026-04-27 08:46 446K
20260427T06Z_MSC_RDPS_AirTemp_IsbL-0550_RLatLon0.09_PT021H.grib2 2026-04-27 08:46 429K
20260427T06Z_MSC_RDPS_AirTemp_IsbL-0600_RLatLon0.09_PT021H.grib2 2026-04-27 08:46 446K
20260427T06Z_MSC_RDPS_AirTemp_IsbL-0650_RLatLon0.09_PT021H.grib2 2026-04-27 08:46 457K
20260427T06Z_MSC_RDPS_AirTemp_IsbL-0700_RLatLon0.09_PT021H.grib2 2026-04-27 08:46 481K
20260427T06Z_MSC_RDPS_AirTemp_IsbL-0750_RLatLon0.09_PT021H.grib2 2026-04-27 08:46 408K
20260427T06Z_MSC_RDPS_AirTemp_IsbL-0800_RLatLon0.09_PT021H.grib2 2026-04-27 08:46 451K
20260427T06Z_MSC_RDPS_AirTemp_IsbL-0850_RLatLon0.09_PT021H.grib2 2026-04-27 08:46 495K
20260427T06Z_MSC_RDPS_AirTemp_IsbL-0875_RLatLon0.09_PT021H.grib2 2026-04-27 08:46 510K
20260427T06Z_MSC_RDPS_AirTemp_IsbL-0900_RLatLon0.09_PT021H.grib2 2026-04-27 08:46 527K
20260427T06Z_MSC_RDPS_AirTemp_IsbL-0925_RLatLon0.09_PT021H.grib2 2026-04-27 08:46 527K
20260427T06Z_MSC_RDPS_AirTemp_IsbL-0950_RLatLon0.09_PT021H.grib2 2026-04-27 08:46 528K
20260427T06Z_MSC_RDPS_AirTemp_IsbL-0970_RLatLon0.09_PT021H.grib2 2026-04-27 08:46 525K
20260427T06Z_MSC_RDPS_AirTemp_IsbL-0985_RLatLon0.09_PT021H.grib2 2026-04-27 08:46 516K
20260427T06Z_MSC_RDPS_AirTemp_IsbL-1000_RLatLon0.09_PT021H.grib2 2026-04-27 08:46 499K
20260427T06Z_MSC_RDPS_AirTemp_IsbL-1015_RLatLon0.09_PT021H.grib2 2026-04-27 08:46 500K
20260427T06Z_MSC_RDPS_Albedo_Sfc_RLatLon0.09_PT021H.grib2 2026-04-27 08:46 165K
20260427T06Z_MSC_RDPS_CAPE_Sfc_RLatLon0.09_PT021H.grib2 2026-04-27 08:46 1.7M
20260427T06Z_MSC_RDPS_CIN_Sfc_RLatLon0.09_PT021H.grib2 2026-04-27 08:46 1.2M
20260427T06Z_MSC_RDPS_CloudWater_EAtm_RLatLon0.09_PT021H.grib2 2026-04-27 08:46 219K
20260427T06Z_MSC_RDPS_ConvectivePrecip-Accum_Sfc_RLatLon0.09_PT021H.grib2 2026-04-27 08:46 849K
20260427T06Z_MSC_RDPS_DewPointDepression_AGL-2m_RLatLon0.09_PT021H.grib2 2026-04-27 08:46 396K
20260427T06Z_MSC_RDPS_DewPointDepression_IsbL-0001_RLatLon0.09_PT021H.grib2 2026-04-27 08:46 193
20260427T06Z_MSC_RDPS_DewPointDepression_IsbL-0005_RLatLon0.09_PT021H.grib2 2026-04-27 08:46 193
20260427T06Z_MSC_RDPS_DewPointDepression_IsbL-0010_RLatLon0.09_PT021H.grib2 2026-04-27 08:46 193
20260427T06Z_MSC_RDPS_DewPointDepression_IsbL-0020_RLatLon0.09_PT021H.grib2 2026-04-27 08:46 193
20260427T06Z_MSC_RDPS_DewPointDepression_IsbL-0030_RLatLon0.09_PT021H.grib2 2026-04-27 08:46 193
20260427T06Z_MSC_RDPS_DewPointDepression_IsbL-0050_RLatLon0.09_PT021H.grib2 2026-04-27 08:46 87K
20260427T06Z_MSC_RDPS_DewPointDepression_IsbL-0100_RLatLon0.09_PT021H.grib2 2026-04-27 08:46 128K
20260427T06Z_MSC_RDPS_DewPointDepression_IsbL-0150_RLatLon0.09_PT021H.grib2 2026-04-27 08:46 152K
20260427T06Z_MSC_RDPS_DewPointDepression_IsbL-0175_RLatLon0.09_PT021H.grib2 2026-04-27 08:46 185K
20260427T06Z_MSC_RDPS_DewPointDepression_IsbL-0200_RLatLon0.09_PT021H.grib2 2026-04-27 08:46 223K
20260427T06Z_MSC_RDPS_DewPointDepression_IsbL-0225_RLatLon0.09_PT021H.grib2 2026-04-27 08:46 265K
20260427T06Z_MSC_RDPS_DewPointDepression_IsbL-0250_RLatLon0.09_PT021H.grib2 2026-04-27 08:46 300K
20260427T06Z_MSC_RDPS_DewPointDepression_IsbL-0275_RLatLon0.09_PT021H.grib2 2026-04-27 08:46 308K
20260427T06Z_MSC_RDPS_DewPointDepression_IsbL-0300_RLatLon0.09_PT021H.grib2 2026-04-27 08:46 326K
20260427T06Z_MSC_RDPS_DewPointDepression_IsbL-0350_RLatLon0.09_PT021H.grib2 2026-04-27 08:46 332K
20260427T06Z_MSC_RDPS_DewPointDepression_IsbL-0400_RLatLon0.09_PT021H.grib2 2026-04-27 08:46 346K
20260427T06Z_MSC_RDPS_DewPointDepression_IsbL-0450_RLatLon0.09_PT021H.grib2 2026-04-27 08:46 358K
20260427T06Z_MSC_RDPS_DewPointDepression_IsbL-0500_RLatLon0.09_PT021H.grib2 2026-04-27 08:46 363K
20260427T06Z_MSC_RDPS_DewPointDepression_IsbL-0550_RLatLon0.09_PT021H.grib2 2026-04-27 08:46 375K
20260427T06Z_MSC_RDPS_DewPointDepression_IsbL-0600_RLatLon0.09_PT021H.grib2 2026-04-27 08:46 386K
20260427T06Z_MSC_RDPS_DewPointDepression_IsbL-0650_RLatLon0.09_PT021H.grib2 2026-04-27 08:46 392K
20260427T06Z_MSC_RDPS_DewPointDepression_IsbL-0700_RLatLon0.09_PT021H.grib2 2026-04-27 08:46 402K
20260427T06Z_MSC_RDPS_DewPointDepression_IsbL-0750_RLatLon0.09_PT021H.grib2 2026-04-27 08:46 424K
20260427T06Z_MSC_RDPS_DewPointDepression_IsbL-0800_RLatLon0.09_PT021H.grib2 2026-04-27 08:46 450K
20260427T06Z_MSC_RDPS_DewPointDepression_IsbL-0850_RLatLon0.09_PT021H.grib2 2026-04-27 08:46 474K
20260427T06Z_MSC_RDPS_DewPointDepression_IsbL-0875_RLatLon0.09_PT021H.grib2 2026-04-27 08:46 474K
20260427T06Z_MSC_RDPS_DewPointDepression_IsbL-0900_RLatLon0.09_PT021H.grib2 2026-04-27 08:46 465K
20260427T06Z_MSC_RDPS_DewPointDepression_IsbL-0925_RLatLon0.09_PT021H.grib2 2026-04-27 08:46 453K
20260427T06Z_MSC_RDPS_DewPointDepression_IsbL-0950_RLatLon0.09_PT021H.grib2 2026-04-27 08:46 442K
20260427T06Z_MSC_RDPS_DewPointDepression_IsbL-0970_RLatLon0.09_PT021H.grib2 2026-04-27 08:46 431K
20260427T06Z_MSC_RDPS_DewPointDepression_IsbL-0985_RLatLon0.09_PT021H.grib2 2026-04-27 08:46 424K
20260427T06Z_MSC_RDPS_DewPointDepression_IsbL-1000_RLatLon0.09_PT021H.grib2 2026-04-27 08:46 419K
20260427T06Z_MSC_RDPS_DewPointDepression_IsbL-1015_RLatLon0.09_PT021H.grib2 2026-04-27 08:46 411K
20260427T06Z_MSC_RDPS_DewPoint_AGL-2m_RLatLon0.09_PT021H.grib2 2026-04-27 08:46 304K
20260427T06Z_MSC_RDPS_DownwardLongwaveRadiationFlux-Accum_Sfc_RLatLon0.09_PT021H.grib2 2026-04-27 08:46 427K
20260427T06Z_MSC_RDPS_DownwardShortwaveRadiationFlux-Accum_NTAtm_RLatLon0.09_PT021H.grib2 2026-04-27 08:46 150K
20260427T06Z_MSC_RDPS_DownwardShortwaveRadiationFlux-Accum_Sfc_RLatLon0.09_PT021H.grib2 2026-04-27 08:46 631K
20260427T06Z_MSC_RDPS_FreezingRain-Accum1h_Sfc_RLatLon0.09_PT021H.grib2 2026-04-27 08:46 25K
20260427T06Z_MSC_RDPS_FreezingRain-Accum3h_Sfc_RLatLon0.09_PT021H.grib2 2026-04-27 08:46 26K
20260427T06Z_MSC_RDPS_FreezingRain-Accum_Sfc_RLatLon0.09_PT021H.grib2 2026-04-27 08:46 89K
20260427T06Z_MSC_RDPS_GeopotentialHeight_IsbL-0001_RLatLon0.09_PT021H.grib2 2026-04-27 08:46 237K
20260427T06Z_MSC_RDPS_GeopotentialHeight_IsbL-0005_RLatLon0.09_PT021H.grib2 2026-04-27 08:46 337K
20260427T06Z_MSC_RDPS_GeopotentialHeight_IsbL-0010_RLatLon0.09_PT021H.grib2 2026-04-27 08:46 305K
20260427T06Z_MSC_RDPS_GeopotentialHeight_IsbL-0020_RLatLon0.09_PT021H.grib2 2026-04-27 08:46 304K
20260427T06Z_MSC_RDPS_GeopotentialHeight_IsbL-0030_RLatLon0.09_PT021H.grib2 2026-04-27 08:46 401K
20260427T06Z_MSC_RDPS_GeopotentialHeight_IsbL-0050_RLatLon0.09_PT021H.grib2 2026-04-27 08:46 340K
20260427T06Z_MSC_RDPS_GeopotentialHeight_IsbL-0100_RLatLon0.09_PT021H.grib2 2026-04-27 08:46 289K
20260427T06Z_MSC_RDPS_GeopotentialHeight_IsbL-0150_RLatLon0.09_PT021H.grib2 2026-04-27 08:46 230K
20260427T06Z_MSC_RDPS_GeopotentialHeight_IsbL-0175_RLatLon0.09_PT021H.grib2 2026-04-27 08:46 233K
20260427T06Z_MSC_RDPS_GeopotentialHeight_IsbL-0200_RLatLon0.09_PT021H.grib2 2026-04-27 08:46 265K
20260427T06Z_MSC_RDPS_GeopotentialHeight_IsbL-0225_RLatLon0.09_PT021H.grib2 2026-04-27 08:46 267K
20260427T06Z_MSC_RDPS_GeopotentialHeight_IsbL-0250_RLatLon0.09_PT021H.grib2 2026-04-27 08:46 269K
20260427T06Z_MSC_RDPS_GeopotentialHeight_IsbL-0275_RLatLon0.09_PT021H.grib2 2026-04-27 08:46 268K
20260427T06Z_MSC_RDPS_GeopotentialHeight_IsbL-0300_RLatLon0.09_PT021H.grib2 2026-04-27 08:46 268K
20260427T06Z_MSC_RDPS_GeopotentialHeight_IsbL-0350_RLatLon0.09_PT021H.grib2 2026-04-27 08:46 233K
20260427T06Z_MSC_RDPS_GeopotentialHeight_IsbL-0400_RLatLon0.09_PT021H.grib2 2026-04-27 08:46 229K
20260427T06Z_MSC_RDPS_GeopotentialHeight_IsbL-0450_RLatLon0.09_PT021H.grib2 2026-04-27 08:46 297K
20260427T06Z_MSC_RDPS_GeopotentialHeight_IsbL-0500_RLatLon0.09_PT021H.grib2 2026-04-27 08:46 292K
20260427T06Z_MSC_RDPS_GeopotentialHeight_IsbL-0550_RLatLon0.09_PT021H.grib2 2026-04-27 08:46 289K
20260427T06Z_MSC_RDPS_GeopotentialHeight_IsbL-0600_RLatLon0.09_PT021H.grib2 2026-04-27 08:46 285K
20260427T06Z_MSC_RDPS_GeopotentialHeight_IsbL-0650_RLatLon0.09_PT021H.grib2 2026-04-27 08:46 284K
20260427T06Z_MSC_RDPS_GeopotentialHeight_IsbL-0700_RLatLon0.09_PT021H.grib2 2026-04-27 08:46 254K
20260427T06Z_MSC_RDPS_GeopotentialHeight_IsbL-0750_RLatLon0.09_PT021H.grib2 2026-04-27 08:46 256K
20260427T06Z_MSC_RDPS_GeopotentialHeight_IsbL-0800_RLatLon0.09_PT021H.grib2 2026-04-27 08:46 260K
20260427T06Z_MSC_RDPS_GeopotentialHeight_IsbL-0850_RLatLon0.09_PT021H.grib2 2026-04-27 08:46 351K
20260427T06Z_MSC_RDPS_GeopotentialHeight_IsbL-0875_RLatLon0.09_PT021H.grib2 2026-04-27 08:46 352K
20260427T06Z_MSC_RDPS_GeopotentialHeight_IsbL-0900_RLatLon0.09_PT021H.grib2 2026-04-27 08:46 358K
20260427T06Z_MSC_RDPS_GeopotentialHeight_IsbL-0925_RLatLon0.09_PT021H.grib2 2026-04-27 08:46 360K
20260427T06Z_MSC_RDPS_GeopotentialHeight_IsbL-0950_RLatLon0.09_PT021H.grib2 2026-04-27 08:46 363K
20260427T06Z_MSC_RDPS_GeopotentialHeight_IsbL-0970_RLatLon0.09_PT021H.grib2 2026-04-27 08:46 370K
20260427T06Z_MSC_RDPS_GeopotentialHeight_IsbL-0985_RLatLon0.09_PT021H.grib2 2026-04-27 08:46 378K
20260427T06Z_MSC_RDPS_GeopotentialHeight_IsbL-1000_RLatLon0.09_PT021H.grib2 2026-04-27 08:46 389K
20260427T06Z_MSC_RDPS_GeopotentialHeight_IsbL-1015_RLatLon0.09_PT021H.grib2 2026-04-27 08:46 402K
20260427T06Z_MSC_RDPS_Humidex_Sfc_RLatLon0.09_PT021H.grib2 2026-04-27 08:46 2.4M
20260427T06Z_MSC_RDPS_IcePellets-Accum1h_Sfc_RLatLon0.09_PT021H.grib2 2026-04-27 08:46 7.2K
20260427T06Z_MSC_RDPS_IcePellets-Accum3h_Sfc_RLatLon0.09_PT021H.grib2 2026-04-27 08:46 7.9K
20260427T06Z_MSC_RDPS_IcePellets-Accum_Sfc_RLatLon0.09_PT021H.grib2 2026-04-27 08:46 13K
20260427T06Z_MSC_RDPS_KIndex_Sfc_RLatLon0.09_PT021H.grib2 2026-04-27 08:46 2.5M
20260427T06Z_MSC_RDPS_LatentHeatNetFlux_Sfc_RLatLon0.09_PT021H.grib2 2026-04-27 08:46 317K
20260427T06Z_MSC_RDPS_LiftedIndex-MU-VT_IsbL-0500_RLatLon0.09_PT021H.grib2 2026-04-27 08:46 2.4M
20260427T06Z_MSC_RDPS_NetLongwaveRadiationFlux-Accum_Sfc_RLatLon0.09_PT021H.grib2 2026-04-27 08:46 568K
20260427T06Z_MSC_RDPS_NetShortwaveRadiationFlux-Accum_Sfc_RLatLon0.09_PT021H.grib2 2026-04-27 08:46 632K
20260427T06Z_MSC_RDPS_PlanetaryBoundaryLayerHeight_Sfc_RLatLon0.09_PT021H.grib2 2026-04-27 08:46 1.1M
20260427T06Z_MSC_RDPS_Precip-Accum1h_Sfc_RLatLon0.09_PT021H.grib2 2026-04-27 08:46 1.3M
20260427T06Z_MSC_RDPS_Precip-Accum3h_Sfc_RLatLon0.09_PT021H.grib2 2026-04-27 08:46 1.3M
20260427T06Z_MSC_RDPS_Precip-Accum_Sfc_RLatLon0.09_PT021H.grib2 2026-04-27 08:46 1.8M
20260427T06Z_MSC_RDPS_PrecipRate_Sfc_RLatLon0.09_PT021H.grib2 2026-04-27 08:46 161K
20260427T06Z_MSC_RDPS_PrecipType-Instant_Sfc_RLatLon0.09_PT021H.grib2 2026-04-27 08:46 558K
20260427T06Z_MSC_RDPS_Pressure-Trend3h_Sfc_RLatLon0.09_PT021H.grib2 2026-04-27 08:46 1.2M
20260427T06Z_MSC_RDPS_Pressure_MSL_RLatLon0.09_PT021H.grib2 2026-04-27 08:46 291K
20260427T06Z_MSC_RDPS_Pressure_PVU-1.5_RLatLon0.09_PT021H.grib2 2026-04-27 08:46 2.3M
20260427T06Z_MSC_RDPS_Pressure_PVU-1_RLatLon0.09_PT021H.grib2 2026-04-27 08:46 2.4M
20260427T06Z_MSC_RDPS_Pressure_PVU-2_RLatLon0.09_PT021H.grib2 2026-04-27 08:46 2.4M
20260427T06Z_MSC_RDPS_Pressure_Sfc_RLatLon0.09_PT021H.grib2 2026-04-27 08:46 499K
20260427T06Z_MSC_RDPS_RadiativeTemp_Sfc_RLatLon0.09_PT021H.grib2 2026-04-27 08:46 304K
20260427T06Z_MSC_RDPS_Rain-Accum1h_Sfc_RLatLon0.09_PT021H.grib2 2026-04-27 08:46 626K
20260427T06Z_MSC_RDPS_Rain-Accum3h_Sfc_RLatLon0.09_PT021H.grib2 2026-04-27 08:46 679K
20260427T06Z_MSC_RDPS_Rain-Accum_Sfc_RLatLon0.09_PT021H.grib2 2026-04-27 08:46 1.3M
20260427T06Z_MSC_RDPS_RelativeHumidity_AGL-2m_RLatLon0.09_PT021H.grib2 2026-04-27 08:46 1.0M
20260427T06Z_MSC_RDPS_RelativeHumidity_IsbL-0010_RLatLon0.09_PT021H.grib2 2026-04-27 08:46 655K
20260427T06Z_MSC_RDPS_RelativeHumidity_IsbL-0020_RLatLon0.09_PT021H.grib2 2026-04-27 08:46 653K
20260427T06Z_MSC_RDPS_RelativeHumidity_IsbL-0030_RLatLon0.09_PT021H.grib2 2026-04-27 08:46 537K
20260427T06Z_MSC_RDPS_RelativeHumidity_IsbL-0050_RLatLon0.09_PT021H.grib2 2026-04-27 08:46 322K
20260427T06Z_MSC_RDPS_RelativeHumidity_IsbL-0100_RLatLon0.09_PT021H.grib2 2026-04-27 08:46 278K
20260427T06Z_MSC_RDPS_RelativeHumidity_IsbL-0150_RLatLon0.09_PT021H.grib2 2026-04-27 08:46 415K
20260427T06Z_MSC_RDPS_RelativeHumidity_IsbL-0175_RLatLon0.09_PT021H.grib2 2026-04-27 08:46 488K
20260427T06Z_MSC_RDPS_RelativeHumidity_IsbL-0200_RLatLon0.09_PT021H.grib2 2026-04-27 08:46 561K
20260427T06Z_MSC_RDPS_RelativeHumidity_IsbL-0225_RLatLon0.09_PT021H.grib2 2026-04-27 08:46 624K
20260427T06Z_MSC_RDPS_RelativeHumidity_IsbL-0250_RLatLon0.09_PT021H.grib2 2026-04-27 08:46 688K
20260427T06Z_MSC_RDPS_RelativeHumidity_IsbL-0275_RLatLon0.09_PT021H.grib2 2026-04-27 08:46 716K
20260427T06Z_MSC_RDPS_RelativeHumidity_IsbL-0300_RLatLon0.09_PT021H.grib2 2026-04-27 08:46 764K
20260427T06Z_MSC_RDPS_RelativeHumidity_IsbL-0350_RLatLon0.09_PT021H.grib2 2026-04-27 08:46 784K
20260427T06Z_MSC_RDPS_RelativeHumidity_IsbL-0400_RLatLon0.09_PT021H.grib2 2026-04-27 08:46 798K
20260427T06Z_MSC_RDPS_RelativeHumidity_IsbL-0450_RLatLon0.09_PT021H.grib2 2026-04-27 08:46 808K
20260427T06Z_MSC_RDPS_RelativeHumidity_IsbL-0500_RLatLon0.09_PT021H.grib2 2026-04-27 08:46 815K
20260427T06Z_MSC_RDPS_RelativeHumidity_IsbL-0550_RLatLon0.09_PT021H.grib2 2026-04-27 08:46 835K
20260427T06Z_MSC_RDPS_RelativeHumidity_IsbL-0600_RLatLon0.09_PT021H.grib2 2026-04-27 08:46 854K
20260427T06Z_MSC_RDPS_RelativeHumidity_IsbL-0650_RLatLon0.09_PT021H.grib2 2026-04-27 08:46 873K
20260427T06Z_MSC_RDPS_RelativeHumidity_IsbL-0700_RLatLon0.09_PT021H.grib2 2026-04-27 08:46 896K
20260427T06Z_MSC_RDPS_RelativeHumidity_IsbL-0750_RLatLon0.09_PT021H.grib2 2026-04-27 08:46 940K
20260427T06Z_MSC_RDPS_RelativeHumidity_IsbL-0800_RLatLon0.09_PT021H.grib2 2026-04-27 08:46 1.0M
20260427T06Z_MSC_RDPS_RelativeHumidity_IsbL-0850_RLatLon0.09_PT021H.grib2 2026-04-27 08:46 1.0M
20260427T06Z_MSC_RDPS_RelativeHumidity_IsbL-0875_RLatLon0.09_PT021H.grib2 2026-04-27 08:46 1.1M
20260427T06Z_MSC_RDPS_RelativeHumidity_IsbL-0900_RLatLon0.09_PT021H.grib2 2026-04-27 08:46 1.1M
20260427T06Z_MSC_RDPS_RelativeHumidity_IsbL-0925_RLatLon0.09_PT021H.grib2 2026-04-27 08:46 1.1M
20260427T06Z_MSC_RDPS_RelativeHumidity_IsbL-0950_RLatLon0.09_PT021H.grib2 2026-04-27 08:46 1.1M
20260427T06Z_MSC_RDPS_RelativeHumidity_IsbL-0970_RLatLon0.09_PT021H.grib2 2026-04-27 08:46 1.0M
20260427T06Z_MSC_RDPS_RelativeHumidity_IsbL-0985_RLatLon0.09_PT021H.grib2 2026-04-27 08:46 1.0M
20260427T06Z_MSC_RDPS_RelativeHumidity_IsbL-1000_RLatLon0.09_PT021H.grib2 2026-04-27 08:46 1.0M
20260427T06Z_MSC_RDPS_RelativeHumidity_IsbL-1015_RLatLon0.09_PT021H.grib2 2026-04-27 08:46 1.0M
20260427T06Z_MSC_RDPS_Runoff-Accum_Sfc_RLatLon0.09_PT021H.grib2 2026-04-27 08:46 44K
20260427T06Z_MSC_RDPS_SWEATIndex_Sfc_RLatLon0.09_PT021H.grib2 2026-04-27 08:46 2.4M
20260427T06Z_MSC_RDPS_SeeingIndex_EAtm_RLatLon0.09_PT021H.grib2 2026-04-27 08:46 1.0M
20260427T06Z_MSC_RDPS_SensibleHeatNetFlux_Sfc_RLatLon0.09_PT021H.grib2 2026-04-27 08:46 294K
20260427T06Z_MSC_RDPS_ShowalterIndex_IsbL-0500_RLatLon0.09_PT021H.grib2 2026-04-27 08:46 2.5M
20260427T06Z_MSC_RDPS_SkyTransparencyIndex_EAtm_RLatLon0.09_PT021H.grib2 2026-04-27 08:46 699K
20260427T06Z_MSC_RDPS_Snow-Accum1h_Sfc_RLatLon0.09_PT021H.grib2 2026-04-27 08:46 481K
20260427T06Z_MSC_RDPS_Snow-Accum3h_Sfc_RLatLon0.09_PT021H.grib2 2026-04-27 08:46 429K
20260427T06Z_MSC_RDPS_Snow-Accum_Sfc_RLatLon0.09_PT021H.grib2 2026-04-27 08:46 677K
20260427T06Z_MSC_RDPS_SnowDensity_Sfc_RLatLon0.09_PT021H.grib2 2026-04-27 08:46 182K
20260427T06Z_MSC_RDPS_SnowDepth_Sfc_RLatLon0.09_PT021H.grib2 2026-04-27 08:46 717K
20260427T06Z_MSC_RDPS_SoilTemp_DBS-0to10cm_RLatLon0.09_PT021H.grib2 2026-04-27 08:46 222K
20260427T06Z_MSC_RDPS_SoilTemp_Sfc_RLatLon0.09_PT021H.grib2 2026-04-27 08:46 260K
20260427T06Z_MSC_RDPS_SoilVolumetricIceContent_Sfc_RLatLon0.09_PT021H.grib2 2026-04-27 08:46 168K
20260427T06Z_MSC_RDPS_SoilVolumetricWaterContent_DBS-0to10cm_RLatLon0.09_PT021H.grib2 2026-04-27 08:46 260K
20260427T06Z_MSC_RDPS_SoilVolumetricWaterContent_DBS-0to1cm_RLatLon0.09_PT021H.grib2 2026-04-27 08:46 335K
20260427T06Z_MSC_RDPS_SpecificHumidity_AGL-120m_RLatLon0.09_PT021H.grib2 2026-04-27 08:46 478K
20260427T06Z_MSC_RDPS_SpecificHumidity_AGL-2m_RLatLon0.09_PT021H.grib2 2026-04-27 08:46 643K
20260427T06Z_MSC_RDPS_SpecificHumidity_AGL-40m_RLatLon0.09_PT021H.grib2 2026-04-27 08:46 484K
20260427T06Z_MSC_RDPS_SpecificHumidity_AGL-80m_RLatLon0.09_PT021H.grib2 2026-04-27 08:46 478K
20260427T06Z_MSC_RDPS_SpecificHumidity_IsbL-0001_RLatLon0.09_PT021H.grib2 2026-04-27 08:46 336K
20260427T06Z_MSC_RDPS_SpecificHumidity_IsbL-0005_RLatLon0.09_PT021H.grib2 2026-04-27 08:46 361K
20260427T06Z_MSC_RDPS_SpecificHumidity_IsbL-0010_RLatLon0.09_PT021H.grib2 2026-04-27 08:46 401K
20260427T06Z_MSC_RDPS_SpecificHumidity_IsbL-0020_RLatLon0.09_PT021H.grib2 2026-04-27 08:46 390K
20260427T06Z_MSC_RDPS_SpecificHumidity_IsbL-0030_RLatLon0.09_PT021H.grib2 2026-04-27 08:46 478K
20260427T06Z_MSC_RDPS_SpecificHumidity_IsbL-0050_RLatLon0.09_PT021H.grib2 2026-04-27 08:46 467K
20260427T06Z_MSC_RDPS_SpecificHumidity_IsbL-0100_RLatLon0.09_PT021H.grib2 2026-04-27 08:46 421K
20260427T06Z_MSC_RDPS_SpecificHumidity_IsbL-0150_RLatLon0.09_PT021H.grib2 2026-04-27 08:46 382K
20260427T06Z_MSC_RDPS_SpecificHumidity_IsbL-0175_RLatLon0.09_PT021H.grib2 2026-04-27 08:46 469K
20260427T06Z_MSC_RDPS_SpecificHumidity_IsbL-0200_RLatLon0.09_PT021H.grib2 2026-04-27 08:46 463K
20260427T06Z_MSC_RDPS_SpecificHumidity_IsbL-0225_RLatLon0.09_PT021H.grib2 2026-04-27 08:46 567K
20260427T06Z_MSC_RDPS_SpecificHumidity_IsbL-0250_RLatLon0.09_PT021H.grib2 2026-04-27 08:46 559K
20260427T06Z_MSC_RDPS_SpecificHumidity_IsbL-0275_RLatLon0.09_PT021H.grib2 2026-04-27 08:46 473K
20260427T06Z_MSC_RDPS_SpecificHumidity_IsbL-0300_RLatLon0.09_PT021H.grib2 2026-04-27 08:46 547K
20260427T06Z_MSC_RDPS_SpecificHumidity_IsbL-0350_RLatLon0.09_PT021H.grib2 2026-04-27 08:46 539K
20260427T06Z_MSC_RDPS_SpecificHumidity_IsbL-0400_RLatLon0.09_PT021H.grib2 2026-04-27 08:46 522K
20260427T06Z_MSC_RDPS_SpecificHumidity_IsbL-0450_RLatLon0.09_PT021H.grib2 2026-04-27 08:46 579K
20260427T06Z_MSC_RDPS_SpecificHumidity_IsbL-0500_RLatLon0.09_PT021H.grib2 2026-04-27 08:46 516K
20260427T06Z_MSC_RDPS_SpecificHumidity_IsbL-0550_RLatLon0.09_PT021H.grib2 2026-04-27 08:46 573K
20260427T06Z_MSC_RDPS_SpecificHumidity_IsbL-0600_RLatLon0.09_PT021H.grib2 2026-04-27 08:46 640K
20260427T06Z_MSC_RDPS_SpecificHumidity_IsbL-0650_RLatLon0.09_PT021H.grib2 2026-04-27 08:46 556K
20260427T06Z_MSC_RDPS_SpecificHumidity_IsbL-0700_RLatLon0.09_PT021H.grib2 2026-04-27 08:46 599K
20260427T06Z_MSC_RDPS_SpecificHumidity_IsbL-0750_RLatLon0.09_PT021H.grib2 2026-04-27 08:46 667K
20260427T06Z_MSC_RDPS_SpecificHumidity_IsbL-0800_RLatLon0.09_PT021H.grib2 2026-04-27 08:46 732K
20260427T06Z_MSC_RDPS_SpecificHumidity_IsbL-0850_RLatLon0.09_PT021H.grib2 2026-04-27 08:46 800K
20260427T06Z_MSC_RDPS_SpecificHumidity_IsbL-0875_RLatLon0.09_PT021H.grib2 2026-04-27 08:46 825K
20260427T06Z_MSC_RDPS_SpecificHumidity_IsbL-0900_RLatLon0.09_PT021H.grib2 2026-04-27 08:46 836K
20260427T06Z_MSC_RDPS_SpecificHumidity_IsbL-0925_RLatLon0.09_PT021H.grib2 2026-04-27 08:46 838K
20260427T06Z_MSC_RDPS_SpecificHumidity_IsbL-0950_RLatLon0.09_PT021H.grib2 2026-04-27 08:46 834K
20260427T06Z_MSC_RDPS_SpecificHumidity_IsbL-0970_RLatLon0.09_PT021H.grib2 2026-04-27 08:46 680K
20260427T06Z_MSC_RDPS_SpecificHumidity_IsbL-0985_RLatLon0.09_PT021H.grib2 2026-04-27 08:46 671K
20260427T06Z_MSC_RDPS_SpecificHumidity_IsbL-1000_RLatLon0.09_PT021H.grib2 2026-04-27 08:46 664K
20260427T06Z_MSC_RDPS_SpecificHumidity_IsbL-1015_RLatLon0.09_PT021H.grib2 2026-04-27 08:46 657K
20260427T06Z_MSC_RDPS_SpecificHumidity_Sfc_RLatLon0.09_PT021H.grib2 2026-04-27 08:46 309K
20260427T06Z_MSC_RDPS_StormRelativeHelicity_EtaL-10000_RLatLon0.09_PT021H.grib2 2026-04-27 08:46 1.1M
20260427T06Z_MSC_RDPS_StormSeverityIndex_EtaL-10000_RLatLon0.09_PT021H.grib2 2026-04-27 08:46 1.2M
20260427T06Z_MSC_RDPS_Thickness_IsbL-0850to0700_RLatLon0.09_PT021H.grib2 2026-04-27 08:46 174K
20260427T06Z_MSC_RDPS_Thickness_IsbL-1000to0500_RLatLon0.09_PT021H.grib2 2026-04-27 08:46 197K
20260427T06Z_MSC_RDPS_Thickness_IsbL-1000to0850_RLatLon0.09_PT021H.grib2 2026-04-27 08:46 181K
20260427T06Z_MSC_RDPS_TotalCloudCover_Sfc_RLatLon0.09_PT021H.grib2 2026-04-27 08:46 649K
20260427T06Z_MSC_RDPS_TotalTotalsIndex_Sfc_RLatLon0.09_PT021H.grib2 2026-04-27 08:46 2.4M
20260427T06Z_MSC_RDPS_UVIndex-ClearSky_Sfc_RLatLon0.09_PT021H.grib2 2026-04-27 08:46 129K
20260427T06Z_MSC_RDPS_UVIndex_Sfc_RLatLon0.09_PT021H.grib2 2026-04-27 08:46 238K
20260427T06Z_MSC_RDPS_UpwardLongwaveRadiationFlux_NTAtm_RLatLon0.09_PT021H.grib2 2026-04-27 08:46 489K
20260427T06Z_MSC_RDPS_UpwardShortwaveRadiationFlux_NTAtm_RLatLon0.09_PT021H.grib2 2026-04-27 08:46 188K
20260427T06Z_MSC_RDPS_VerticalVelocity_IsbL-0250_RLatLon0.09_PT021H.grib2 2026-04-27 08:46 550K
20260427T06Z_MSC_RDPS_VerticalVelocity_IsbL-0500_RLatLon0.09_PT021H.grib2 2026-04-27 08:46 541K
20260427T06Z_MSC_RDPS_VerticalVelocity_IsbL-0700_RLatLon0.09_PT021H.grib2 2026-04-27 08:46 592K
20260427T06Z_MSC_RDPS_VerticalVelocity_IsbL-0850_RLatLon0.09_PT021H.grib2 2026-04-27 08:46 689K
20260427T06Z_MSC_RDPS_VerticalWindShear_EtaL-6500_RLatLon0.09_PT021H.grib2 2026-04-27 08:46 1.2M
20260427T06Z_MSC_RDPS_WindChill_Sfc_RLatLon0.09_PT021H.grib2 2026-04-27 08:46 1.1M
20260427T06Z_MSC_RDPS_WindDir_AGL-10m_RLatLon0.09_PT021H.grib2 2026-04-27 08:46 954K
20260427T06Z_MSC_RDPS_WindDir_AGL-120m_RLatLon0.09_PT021H.grib2 2026-04-27 08:46 591K
20260427T06Z_MSC_RDPS_WindDir_AGL-40m_RLatLon0.09_PT021H.grib2 2026-04-27 08:46 623K
20260427T06Z_MSC_RDPS_WindDir_AGL-80m_RLatLon0.09_PT021H.grib2 2026-04-27 08:46 603K
20260427T06Z_MSC_RDPS_WindDir_IsbL-0001_RLatLon0.09_PT021H.grib2 2026-04-27 08:46 301K
20260427T06Z_MSC_RDPS_WindDir_IsbL-0005_RLatLon0.09_PT021H.grib2 2026-04-27 08:46 371K
20260427T06Z_MSC_RDPS_WindDir_IsbL-0010_RLatLon0.09_PT021H.grib2 2026-04-27 08:46 403K
20260427T06Z_MSC_RDPS_WindDir_IsbL-0020_RLatLon0.09_PT021H.grib2 2026-04-27 08:46 417K
20260427T06Z_MSC_RDPS_WindDir_IsbL-0030_RLatLon0.09_PT021H.grib2 2026-04-27 08:46 420K
20260427T06Z_MSC_RDPS_WindDir_IsbL-0050_RLatLon0.09_PT021H.grib2 2026-04-27 08:46 430K
20260427T06Z_MSC_RDPS_WindDir_IsbL-0100_RLatLon0.09_PT021H.grib2 2026-04-27 08:46 414K
20260427T06Z_MSC_RDPS_WindDir_IsbL-0150_RLatLon0.09_PT021H.grib2 2026-04-27 08:46 413K
20260427T06Z_MSC_RDPS_WindDir_IsbL-0175_RLatLon0.09_PT021H.grib2 2026-04-27 08:46 436K
20260427T06Z_MSC_RDPS_WindDir_IsbL-0200_RLatLon0.09_PT021H.grib2 2026-04-27 08:46 446K
20260427T06Z_MSC_RDPS_WindDir_IsbL-0225_RLatLon0.09_PT021H.grib2 2026-04-27 08:46 445K
20260427T06Z_MSC_RDPS_WindDir_IsbL-0250_RLatLon0.09_PT021H.grib2 2026-04-27 08:46 444K
20260427T06Z_MSC_RDPS_WindDir_IsbL-0275_RLatLon0.09_PT021H.grib2 2026-04-27 08:46 464K
20260427T06Z_MSC_RDPS_WindDir_IsbL-0300_RLatLon0.09_PT021H.grib2 2026-04-27 08:46 466K
20260427T06Z_MSC_RDPS_WindDir_IsbL-0350_RLatLon0.09_PT021H.grib2 2026-04-27 08:46 489K
20260427T06Z_MSC_RDPS_WindDir_IsbL-0400_RLatLon0.09_PT021H.grib2 2026-04-27 08:46 509K
20260427T06Z_MSC_RDPS_WindDir_IsbL-0450_RLatLon0.09_PT021H.grib2 2026-04-27 08:46 528K
20260427T06Z_MSC_RDPS_WindDir_IsbL-0500_RLatLon0.09_PT021H.grib2 2026-04-27 08:46 542K
20260427T06Z_MSC_RDPS_WindDir_IsbL-0550_RLatLon0.09_PT021H.grib2 2026-04-27 08:46 556K
20260427T06Z_MSC_RDPS_WindDir_IsbL-0600_RLatLon0.09_PT021H.grib2 2026-04-27 08:46 583K
20260427T06Z_MSC_RDPS_WindDir_IsbL-0650_RLatLon0.09_PT021H.grib2 2026-04-27 08:46 623K
20260427T06Z_MSC_RDPS_WindDir_IsbL-0700_RLatLon0.09_PT021H.grib2 2026-04-27 08:46 662K
20260427T06Z_MSC_RDPS_WindDir_IsbL-0750_RLatLon0.09_PT021H.grib2 2026-04-27 08:46 708K
20260427T06Z_MSC_RDPS_WindDir_IsbL-0800_RLatLon0.09_PT021H.grib2 2026-04-27 08:46 778K
20260427T06Z_MSC_RDPS_WindDir_IsbL-0850_RLatLon0.09_PT021H.grib2 2026-04-27 08:46 851K
20260427T06Z_MSC_RDPS_WindDir_IsbL-0875_RLatLon0.09_PT021H.grib2 2026-04-27 08:46 877K
20260427T06Z_MSC_RDPS_WindDir_IsbL-0900_RLatLon0.09_PT021H.grib2 2026-04-27 08:46 893K
20260427T06Z_MSC_RDPS_WindDir_IsbL-0925_RLatLon0.09_PT021H.grib2 2026-04-27 08:46 900K
20260427T06Z_MSC_RDPS_WindDir_IsbL-0950_RLatLon0.09_PT021H.grib2 2026-04-27 08:46 895K
20260427T06Z_MSC_RDPS_WindDir_IsbL-0970_RLatLon0.09_PT021H.grib2 2026-04-27 08:46 902K
20260427T06Z_MSC_RDPS_WindDir_IsbL-0985_RLatLon0.09_PT021H.grib2 2026-04-27 08:46 912K
20260427T06Z_MSC_RDPS_WindDir_IsbL-1000_RLatLon0.09_PT021H.grib2 2026-04-27 08:46 928K
20260427T06Z_MSC_RDPS_WindDir_IsbL-1015_RLatLon0.09_PT021H.grib2 2026-04-27 08:46 946K
20260427T06Z_MSC_RDPS_WindGust-Max_AGL-10m_RLatLon0.09_PT021H.grib2 2026-04-27 08:46 954K
20260427T06Z_MSC_RDPS_WindGust-Min_AGL-10m_RLatLon0.09_PT021H.grib2 2026-04-27 08:46 922K
20260427T06Z_MSC_RDPS_WindGust_AGL-10m_RLatLon0.09_PT021H.grib2 2026-04-27 08:46 942K
20260427T06Z_MSC_RDPS_WindSpeed_AGL-10m_RLatLon0.09_PT021H.grib2 2026-04-27 08:46 838K
20260427T06Z_MSC_RDPS_WindSpeed_AGL-120m_RLatLon0.09_PT021H.grib2 2026-04-27 08:46 547K
20260427T06Z_MSC_RDPS_WindSpeed_AGL-40m_RLatLon0.09_PT021H.grib2 2026-04-27 08:46 553K
20260427T06Z_MSC_RDPS_WindSpeed_AGL-80m_RLatLon0.09_PT021H.grib2 2026-04-27 08:46 549K
20260427T06Z_MSC_RDPS_WindSpeed_IsbL-0001_RLatLon0.09_PT021H.grib2 2026-04-27 08:46 252K
20260427T06Z_MSC_RDPS_WindSpeed_IsbL-0005_RLatLon0.09_PT021H.grib2 2026-04-27 08:46 301K
20260427T06Z_MSC_RDPS_WindSpeed_IsbL-0010_RLatLon0.09_PT021H.grib2 2026-04-27 08:46 312K
20260427T06Z_MSC_RDPS_WindSpeed_IsbL-0020_RLatLon0.09_PT021H.grib2 2026-04-27 08:46 328K
20260427T06Z_MSC_RDPS_WindSpeed_IsbL-0030_RLatLon0.09_PT021H.grib2 2026-04-27 08:46 321K
20260427T06Z_MSC_RDPS_WindSpeed_IsbL-0050_RLatLon0.09_PT021H.grib2 2026-04-27 08:46 356K
20260427T06Z_MSC_RDPS_WindSpeed_IsbL-0100_RLatLon0.09_PT021H.grib2 2026-04-27 08:46 445K
20260427T06Z_MSC_RDPS_WindSpeed_IsbL-0150_RLatLon0.09_PT021H.grib2 2026-04-27 08:46 385K
20260427T06Z_MSC_RDPS_WindSpeed_IsbL-0175_RLatLon0.09_PT021H.grib2 2026-04-27 08:46 434K
20260427T06Z_MSC_RDPS_WindSpeed_IsbL-0200_RLatLon0.09_PT021H.grib2 2026-04-27 08:46 450K
20260427T06Z_MSC_RDPS_WindSpeed_IsbL-0225_RLatLon0.09_PT021H.grib2 2026-04-27 08:46 453K
20260427T06Z_MSC_RDPS_WindSpeed_IsbL-0250_RLatLon0.09_PT021H.grib2 2026-04-27 08:46 456K
20260427T06Z_MSC_RDPS_WindSpeed_IsbL-0275_RLatLon0.09_PT021H.grib2 2026-04-27 08:46 472K
20260427T06Z_MSC_RDPS_WindSpeed_IsbL-0300_RLatLon0.09_PT021H.grib2 2026-04-27 08:46 469K
20260427T06Z_MSC_RDPS_WindSpeed_IsbL-0350_RLatLon0.09_PT021H.grib2 2026-04-27 08:46 479K
20260427T06Z_MSC_RDPS_WindSpeed_IsbL-0400_RLatLon0.09_PT021H.grib2 2026-04-27 08:46 465K
20260427T06Z_MSC_RDPS_WindSpeed_IsbL-0450_RLatLon0.09_PT021H.grib2 2026-04-27 08:46 464K
20260427T06Z_MSC_RDPS_WindSpeed_IsbL-0500_RLatLon0.09_PT021H.grib2 2026-04-27 08:46 461K
20260427T06Z_MSC_RDPS_WindSpeed_IsbL-0550_RLatLon0.09_PT021H.grib2 2026-04-27 08:46 580K
20260427T06Z_MSC_RDPS_WindSpeed_IsbL-0600_RLatLon0.09_PT021H.grib2 2026-04-27 08:46 591K
20260427T06Z_MSC_RDPS_WindSpeed_IsbL-0650_RLatLon0.09_PT021H.grib2 2026-04-27 08:46 611K
20260427T06Z_MSC_RDPS_WindSpeed_IsbL-0700_RLatLon0.09_PT021H.grib2 2026-04-27 08:46 677K
20260427T06Z_MSC_RDPS_WindSpeed_IsbL-0750_RLatLon0.09_PT021H.grib2 2026-04-27 08:46 703K
20260427T06Z_MSC_RDPS_WindSpeed_IsbL-0800_RLatLon0.09_PT021H.grib2 2026-04-27 08:46 749K
20260427T06Z_MSC_RDPS_WindSpeed_IsbL-0850_RLatLon0.09_PT021H.grib2 2026-04-27 08:46 806K
20260427T06Z_MSC_RDPS_WindSpeed_IsbL-0875_RLatLon0.09_PT021H.grib2 2026-04-27 08:46 782K
20260427T06Z_MSC_RDPS_WindSpeed_IsbL-0900_RLatLon0.09_PT021H.grib2 2026-04-27 08:46 798K
20260427T06Z_MSC_RDPS_WindSpeed_IsbL-0925_RLatLon0.09_PT021H.grib2 2026-04-27 08:46 810K
20260427T06Z_MSC_RDPS_WindSpeed_IsbL-0950_RLatLon0.09_PT021H.grib2 2026-04-27 08:46 858K
20260427T06Z_MSC_RDPS_WindSpeed_IsbL-0970_RLatLon0.09_PT021H.grib2 2026-04-27 08:46 860K
20260427T06Z_MSC_RDPS_WindSpeed_IsbL-0985_RLatLon0.09_PT021H.grib2 2026-04-27 08:46 857K
20260427T06Z_MSC_RDPS_WindSpeed_IsbL-1000_RLatLon0.09_PT021H.grib2 2026-04-27 08:46 847K
20260427T06Z_MSC_RDPS_WindSpeed_IsbL-1015_RLatLon0.09_PT021H.grib2 2026-04-27 08:46 839K
20260427T06Z_MSC_RDPS_WindU_AGL-10m_RLatLon0.09_PT021H.grib2 2026-04-27 08:46 431K
20260427T06Z_MSC_RDPS_WindU_AGL-120m_RLatLon0.09_PT021H.grib2 2026-04-27 08:46 417K
20260427T06Z_MSC_RDPS_WindU_AGL-40m_RLatLon0.09_PT021H.grib2 2026-04-27 08:46 538K
20260427T06Z_MSC_RDPS_WindU_AGL-80m_RLatLon0.09_PT021H.grib2 2026-04-27 08:46 419K
20260427T06Z_MSC_RDPS_WindU_IsbL-0001_RLatLon0.09_PT021H.grib2 2026-04-27 08:46 293K
20260427T06Z_MSC_RDPS_WindU_IsbL-0005_RLatLon0.09_PT021H.grib2 2026-04-27 08:46 335K
20260427T06Z_MSC_RDPS_WindU_IsbL-0010_RLatLon0.09_PT021H.grib2 2026-04-27 08:46 301K
20260427T06Z_MSC_RDPS_WindU_IsbL-0020_RLatLon0.09_PT021H.grib2 2026-04-27 08:46 356K
20260427T06Z_MSC_RDPS_WindU_IsbL-0030_RLatLon0.09_PT021H.grib2 2026-04-27 08:46 352K
20260427T06Z_MSC_RDPS_WindU_IsbL-0050_RLatLon0.09_PT021H.grib2 2026-04-27 08:46 383K
20260427T06Z_MSC_RDPS_WindU_IsbL-0100_RLatLon0.09_PT021H.grib2 2026-04-27 08:46 342K
20260427T06Z_MSC_RDPS_WindU_IsbL-0150_RLatLon0.09_PT021H.grib2 2026-04-27 08:46 402K
20260427T06Z_MSC_RDPS_WindU_IsbL-0175_RLatLon0.09_PT021H.grib2 2026-04-27 08:46 427K
20260427T06Z_MSC_RDPS_WindU_IsbL-0200_RLatLon0.09_PT021H.grib2 2026-04-27 08:46 343K
20260427T06Z_MSC_RDPS_WindU_IsbL-0225_RLatLon0.09_PT021H.grib2 2026-04-27 08:46 346K
20260427T06Z_MSC_RDPS_WindU_IsbL-0250_RLatLon0.09_PT021H.grib2 2026-04-27 08:46 347K
20260427T06Z_MSC_RDPS_WindU_IsbL-0275_RLatLon0.09_PT021H.grib2 2026-04-27 08:46 360K
20260427T06Z_MSC_RDPS_WindU_IsbL-0300_RLatLon0.09_PT021H.grib2 2026-04-27 08:46 355K
20260427T06Z_MSC_RDPS_WindU_IsbL-0350_RLatLon0.09_PT021H.grib2 2026-04-27 08:46 363K
20260427T06Z_MSC_RDPS_WindU_IsbL-0400_RLatLon0.09_PT021H.grib2 2026-04-27 08:46 366K
20260427T06Z_MSC_RDPS_WindU_IsbL-0450_RLatLon0.09_PT021H.grib2 2026-04-27 08:46 470K
20260427T06Z_MSC_RDPS_WindU_IsbL-0500_RLatLon0.09_PT021H.grib2 2026-04-27 08:46 468K
20260427T06Z_MSC_RDPS_WindU_IsbL-0550_RLatLon0.09_PT021H.grib2 2026-04-27 08:46 471K
20260427T06Z_MSC_RDPS_WindU_IsbL-0600_RLatLon0.09_PT021H.grib2 2026-04-27 08:46 480K
20260427T06Z_MSC_RDPS_WindU_IsbL-0650_RLatLon0.09_PT021H.grib2 2026-04-27 08:46 498K
20260427T06Z_MSC_RDPS_WindU_IsbL-0700_RLatLon0.09_PT021H.grib2 2026-04-27 08:46 501K
20260427T06Z_MSC_RDPS_WindU_IsbL-0750_RLatLon0.09_PT021H.grib2 2026-04-27 08:46 526K
20260427T06Z_MSC_RDPS_WindU_IsbL-0800_RLatLon0.09_PT021H.grib2 2026-04-27 08:46 566K
20260427T06Z_MSC_RDPS_WindU_IsbL-0850_RLatLon0.09_PT021H.grib2 2026-04-27 08:46 616K
20260427T06Z_MSC_RDPS_WindU_IsbL-0875_RLatLon0.09_PT021H.grib2 2026-04-27 08:46 635K
20260427T06Z_MSC_RDPS_WindU_IsbL-0900_RLatLon0.09_PT021H.grib2 2026-04-27 08:46 647K
20260427T06Z_MSC_RDPS_WindU_IsbL-0925_RLatLon0.09_PT021H.grib2 2026-04-27 08:46 655K
20260427T06Z_MSC_RDPS_WindU_IsbL-0950_RLatLon0.09_PT021H.grib2 2026-04-27 08:46 653K
20260427T06Z_MSC_RDPS_WindU_IsbL-0970_RLatLon0.09_PT021H.grib2 2026-04-27 08:46 652K
20260427T06Z_MSC_RDPS_WindU_IsbL-0985_RLatLon0.09_PT021H.grib2 2026-04-27 08:46 650K
20260427T06Z_MSC_RDPS_WindU_IsbL-1000_RLatLon0.09_PT021H.grib2 2026-04-27 08:46 784K
20260427T06Z_MSC_RDPS_WindU_IsbL-1015_RLatLon0.09_PT021H.grib2 2026-04-27 08:46 778K
20260427T06Z_MSC_RDPS_WindV_AGL-10m_RLatLon0.09_PT021H.grib2 2026-04-27 08:46 428K
20260427T06Z_MSC_RDPS_WindV_AGL-120m_RLatLon0.09_PT021H.grib2 2026-04-27 08:46 415K
20260427T06Z_MSC_RDPS_WindV_AGL-40m_RLatLon0.09_PT021H.grib2 2026-04-27 08:46 535K
20260427T06Z_MSC_RDPS_WindV_AGL-80m_RLatLon0.09_PT021H.grib2 2026-04-27 08:46 417K
20260427T06Z_MSC_RDPS_WindV_IsbL-0001_RLatLon0.09_PT021H.grib2 2026-04-27 08:46 294K
20260427T06Z_MSC_RDPS_WindV_IsbL-0005_RLatLon0.09_PT021H.grib2 2026-04-27 08:46 290K
20260427T06Z_MSC_RDPS_WindV_IsbL-0010_RLatLon0.09_PT021H.grib2 2026-04-27 08:46 302K
20260427T06Z_MSC_RDPS_WindV_IsbL-0020_RLatLon0.09_PT021H.grib2 2026-04-27 08:46 319K
20260427T06Z_MSC_RDPS_WindV_IsbL-0030_RLatLon0.09_PT021H.grib2 2026-04-27 08:46 316K
20260427T06Z_MSC_RDPS_WindV_IsbL-0050_RLatLon0.09_PT021H.grib2 2026-04-27 08:46 349K
20260427T06Z_MSC_RDPS_WindV_IsbL-0100_RLatLon0.09_PT021H.grib2 2026-04-27 08:46 337K
20260427T06Z_MSC_RDPS_WindV_IsbL-0150_RLatLon0.09_PT021H.grib2 2026-04-27 08:46 400K
20260427T06Z_MSC_RDPS_WindV_IsbL-0175_RLatLon0.09_PT021H.grib2 2026-04-27 08:46 427K
20260427T06Z_MSC_RDPS_WindV_IsbL-0200_RLatLon0.09_PT021H.grib2 2026-04-27 08:46 344K
20260427T06Z_MSC_RDPS_WindV_IsbL-0225_RLatLon0.09_PT021H.grib2 2026-04-27 08:46 370K
20260427T06Z_MSC_RDPS_WindV_IsbL-0250_RLatLon0.09_PT021H.grib2 2026-04-27 08:46 370K
20260427T06Z_MSC_RDPS_WindV_IsbL-0275_RLatLon0.09_PT021H.grib2 2026-04-27 08:46 383K
20260427T06Z_MSC_RDPS_WindV_IsbL-0300_RLatLon0.09_PT021H.grib2 2026-04-27 08:46 379K
20260427T06Z_MSC_RDPS_WindV_IsbL-0350_RLatLon0.09_PT021H.grib2 2026-04-27 08:46 362K
20260427T06Z_MSC_RDPS_WindV_IsbL-0400_RLatLon0.09_PT021H.grib2 2026-04-27 08:46 364K
20260427T06Z_MSC_RDPS_WindV_IsbL-0450_RLatLon0.09_PT021H.grib2 2026-04-27 08:46 466K
20260427T06Z_MSC_RDPS_WindV_IsbL-0500_RLatLon0.09_PT021H.grib2 2026-04-27 08:46 465K
20260427T06Z_MSC_RDPS_WindV_IsbL-0550_RLatLon0.09_PT021H.grib2 2026-04-27 08:46 467K
20260427T06Z_MSC_RDPS_WindV_IsbL-0600_RLatLon0.09_PT021H.grib2 2026-04-27 08:46 476K
20260427T06Z_MSC_RDPS_WindV_IsbL-0650_RLatLon0.09_PT021H.grib2 2026-04-27 08:46 494K
20260427T06Z_MSC_RDPS_WindV_IsbL-0700_RLatLon0.09_PT021H.grib2 2026-04-27 08:46 513K
20260427T06Z_MSC_RDPS_WindV_IsbL-0750_RLatLon0.09_PT021H.grib2 2026-04-27 08:46 521K
20260427T06Z_MSC_RDPS_WindV_IsbL-0800_RLatLon0.09_PT021H.grib2 2026-04-27 08:46 561K
20260427T06Z_MSC_RDPS_WindV_IsbL-0850_RLatLon0.09_PT021H.grib2 2026-04-27 08:46 612K
20260427T06Z_MSC_RDPS_WindV_IsbL-0875_RLatLon0.09_PT021H.grib2 2026-04-27 08:46 631K
20260427T06Z_MSC_RDPS_WindV_IsbL-0900_RLatLon0.09_PT021H.grib2 2026-04-27 08:46 644K
20260427T06Z_MSC_RDPS_WindV_IsbL-0925_RLatLon0.09_PT021H.grib2 2026-04-27 08:46 652K
20260427T06Z_MSC_RDPS_WindV_IsbL-0950_RLatLon0.09_PT021H.grib2 2026-04-27 08:46 651K
20260427T06Z_MSC_RDPS_WindV_IsbL-0970_RLatLon0.09_PT021H.grib2 2026-04-27 08:46 650K
20260427T06Z_MSC_RDPS_WindV_IsbL-0985_RLatLon0.09_PT021H.grib2 2026-04-27 08:46 647K
20260427T06Z_MSC_RDPS_WindV_IsbL-1000_RLatLon0.09_PT021H.grib2 2026-04-27 08:46 781K
20260427T06Z_MSC_RDPS_WindV_IsbL-1015_RLatLon0.09_PT021H.grib2 2026-04-27 08:46 774K